FW4825 Weather Reports


time (UTC)temp
F
wind
direction
speed
knots
gust
knots
rain 1hr
in
rain 24hr
in
rain mn
in
humidity
%
barometer
mb
20260504081537 59 180 0.9 1.7 0.00 0.00 0.00 77 1008.2
20260504080517 59 0.0 1.7 0.00 0.00 0.00 76 1008.0
20260504050516 60 0.0 0.0 0.00 0.00 0.00 74 1009.1
20260504045516 61 0.0 0.0 0.00 0.00 0.00 74 1009.1
20260504044515 61 0.0 0.9 0.00 0.00 0.00 74 1009.3
20260504043515 61 0.0 0.0 0.00 0.00 0.00 75 1009.9
20260504042515 61 0.0 0.0 0.00 0.00 0.00 75 1010.2
20260504041515 61 0.0 1.7 0.00 0.00 0.00 76 1010.2
20260504040515 61 0.0 0.9 0.00 0.00 0.00 74 1010.3
20260504035515 61 0.0 0.9 0.00 0.00 0.00 74 1010.2
20260504034515 62 225 0.9 0.9 0.00 0.00 0.00 74 1010.5
20260504033555 62 0.0 1.7 0.00 0.00 0.00 73 1010.5
20260504032515 62 0.0 0.0 0.00 0.00 0.00 72 1010.4
20260504031515 63 225 0.9 2.6 0.00 0.00 0.00 71 1010.4
20260504030515 63 0.0 1.7 0.00 0.00 0.00 70 1010.8
20260504025515 63 0.0 0.9 0.00 0.00 0.00 69 1010.7
20260504024515 64 0.0 0.9 0.00 0.00 0.00 68 1010.8
20260504023535 64 0.0 0.9 0.00 0.00 0.00 67 1010.4
20260504022537 64 248 0.9 1.7 0.00 0.00 0.00 67 1010.3
20260504021537 65 0.0 0.9 0.00 0.00 0.00 66 1010.5
20260504020517 65 0.0 0.0 0.00 0.00 0.00 65 1010.4
20260504015517 66 0.0 0.0 0.00 0.00 0.00 64 1010.4
20260504014517 67 0.0 0.0 0.00 0.00 0.00 63 1010.3
20260504013517 67 0.0 0.9 0.00 0.00 0.00 62 1010.1
20260504012517 68 0.0 0.0 0.00 0.00 0.00 61 1010.0
20260504011517 68 0.0 1.7 0.00 0.00 0.00 60 1010.1
20260504010517 69 0.0 0.9 0.00 0.00 0.00 60 1009.8
20260504005517 69 0.0 0.0 0.00 0.00 0.00 57 1009.8
20260504004517 70 0.0 0.0 0.00 0.00 0.00 56 1010.0
20260504003517 70 0.0 0.9 0.00 0.00 0.00 55 1010.0
20260504002517 70 248 0.9 1.7 0.00 0.00 0.00 54 1009.7
20260504001517 71 248 0.9 1.7 0.00 0.00 0.00 54 1009.5
20260504000517 71 180 0.9 2.6 0.00 0.00 0.00 54 1009.6
20260503235517 71 203 0.9 1.7 0.00 0.00 0.00 53 1009.9
20260503234517 71 203 0.9 2.6 0.00 0.00 0.00 52 1010.0
20260503233517 71 203 0.9 2.6 0.00 0.00 0.00 52 1010.2
20260503232517 72 180 0.9 2.6 0.00 0.00 0.00 50 1009.9
20260503231517 72 203 1.7 7.0 0.00 0.00 0.00 49 1010.1
20260503230517 72 270 1.7 5.2 0.00 0.00 0.00 49 1010.0
20260503225537 72 180 1.7 7.8 0.00 0.00 0.00 47 1009.6
20260503224517 72 180 2.6 7.8 0.00 0.00 0.00 47 1009.5
20260503223516 72 180 2.6 8.7 0.00 0.00 0.00 47 1009.9
20260503222556 72 180 2.6 6.1 0.00 0.00 0.00 47 1010.1
20260503221517 72 225 2.6 5.2 0.00 0.00 0.00 46 1010.2
20260503220517 73 180 3.5 8.7 0.00 0.00 0.00 45 1009.8
20260503215517 73 180 2.6 7.0 0.00 0.00 0.00 46 1009.9
20260503214517 73 180 2.6 8.7 0.00 0.00 0.00 45 1010.3
20260503213516 73 248 4.3 11.3 0.00 0.00 0.00 44 1010.4
20260503212516 73 203 5.2 12.2 0.00 0.00 0.00 43 1010.3
20260503211516 72 180 2.6 7.0 0.00 0.00 0.00 48 1010.8
20260503210516 72 225 3.5 8.7 0.00 0.00 0.00 43 1011.2
20260503205516 72 180 4.3 11.3 0.00 0.00 0.00 44 1011.3
20260503204516 71 158 2.6 10.4 0.00 0.00 0.00 45 1011.1
20260503203516 70 180 3.5 10.4 0.00 0.00 0.00 48 1011.5
20260503202556 69 203 3.5 10.4 0.00 0.00 0.00 46 1011.6
20260503201516 69 225 3.5 13.9 0.00 0.00 0.00 45 1011.9
20260503200516 69 180 4.3 11.3 0.00 0.00 0.00 45 1011.9
20260503195536 68 248 3.5 10.4 0.00 0.00 0.00 47 1011.9
20260503194516 68 180 5.2 15.6 0.00 0.00 0.00 44 1012.0
20260503193517 68 203 3.5 9.6 0.00 0.00 0.00 47 1012.3
20260503192536 68 203 4.3 13.0 0.00 0.00 0.00 46 1012.1
20260503191536 68 180 6.1 14.8 0.00 0.00 0.00 45 1012.4
20260503190516 69 180 4.3 12.2 0.00 0.00 0.00 45 1012.7
20260503185536 69 180 4.3 12.2 0.00 0.00 0.00 49 1012.6
20260503184516 68 180 7.0 13.0 0.00 0.00 0.00 47 1012.5
20260503183516 68 180 5.2 10.4 0.00 0.00 0.00 46 1012.9
20260503182516 67 180 6.1 17.4 0.00 0.00 0.00 49 1013.0
20260503181516 66 180 5.2 13.9 0.00 0.00 0.00 49 1013.6
20260503180516 67 180 4.3 12.2 0.00 0.00 0.00 48 1013.7
20260503175516 67 180 5.2 13.0 0.00 0.00 0.00 48 1014.3
20260503174516 67 180 7.8 18.2 0.00 0.00 0.00 48 1014.0
20260503173516 66 180 5.2 8.7 0.00 0.00 0.00 47 1014.1
20260503172516 66 180 7.0 20.0 0.00 0.00 0.00 48 1014.7
20260503171516 65 180 7.0 20.0 0.00 0.00 0.00 51 1015.1
20260503170516 65 203 5.2 17.4 0.00 0.00 0.00 51 1015.5
20260503150516 59 180 3.5 8.7 0.00 0.00 0.00 59 1017.8
20260503130515 49 180 3.5 8.7 0.00 0.00 0.00 73 1018.5
20260503110515 46 180 2.6 8.7 0.00 0.00 0.00 75 1018.1